New Richmond, WI

5:35 AM CST on February 22, 2017 (GMT -0600)
New Richmond Municipal

Weather History for KRNH - April, 2013

Change the Weather History Date:

Sunday, April 28, 2013

  Actual Average (KSTP) Record (KSTP)
Temperature  
Mean Temperature 60 °F -  
Max Temperature 73 °F 63 °F 90 °F (2004)
Min Temperature 46 °F 40 °F 24 °F (2005)
Degree Days  
Heating Degree Days 6    
Growing Degree Days 10 (Base 50)    
Moisture  
Dew Point 46 °F    
Average Humidity 63    
Maximum Humidity 100    
Minimum Humidity 35    
Precipitation  
Precipitation 0.24 in - - ()
Sea Level Pressure  
Sea Level Pressure 29.80 in    
Wind  
Wind Speed 11 mph (South)    
Max Wind Speed 21 mph    
Max Gust Speed 29 mph    
Visibility 10 miles    
Events Rain    
Averages and records for this station are not official NWS values.
T = Trace of Precipitation, MM = Missing Value Source: NWS Daily Summary

Daily Weather History Graph

Daily Weather History Graph

Search for Another Location

Airport or City:

Trip Planner

Search our weather history database for the weather conditions in past years. The results will help you decide how hot, cold, wet, or windy it might be!

Date:

Astronomy

Apr. 28, 2013 Rise Set
Actual Time 6:03 AM CDT 8:12 PM CDT
Civil Twilight 5:31 AM CDT 8:44 PM CDT
Nautical Twilight 4:51 AM CDT 9:24 PM CDT
Astronomical Twilight 4:07 AM CDT 10:09 PM CDT
Moon 11:48 PM CDT (4/28) 8:15 AM CDT (4/28)
Length of Visible Light 15h 13m
Length of Day
14h 09m
Waning Gibbous, 88% of the Moon is Illuminated
Apr 28
Waning Gibbous
May 2
Last Quarter
May 9
New
May 17
First Quarter
May 24
Full

Hourly Weather History & Observations

Time (CDT) Temp. Windchill Dew Point Humidity Pressure Visibility Wind Dir Wind Speed Gust Speed Precip Events Conditions
12:15 AM 53.6 °F - 44.6 °F 72% 29.92 in 10.0 mi South 10.4 mph - N/A   Clear
12:35 AM 53.6 °F - 44.6 °F 72% 29.92 in 10.0 mi South 9.2 mph - N/A   Clear
12:55 AM 53.6 °F - 44.6 °F 72% 29.92 in 10.0 mi South 10.4 mph - N/A   Clear
1:15 AM 51.8 °F - 44.6 °F 76% 29.92 in 10.0 mi South 6.9 mph - N/A   Clear
1:35 AM 51.8 °F - 44.6 °F 76% 29.91 in 10.0 mi South 9.2 mph - N/A   Clear
1:55 AM 51.8 °F - 42.8 °F 71% 29.90 in 10.0 mi South 9.2 mph - N/A   Clear
2:15 AM 51.8 °F - 42.8 °F 71% 29.90 in 10.0 mi South 9.2 mph - N/A   Clear
2:35 AM 51.8 °F - 42.8 °F 71% 29.89 in 10.0 mi South 9.2 mph - N/A   Clear
2:55 AM 51.8 °F - 42.8 °F 71% 29.89 in 10.0 mi SSW 10.4 mph - N/A   Clear
3:15 AM 51.8 °F - 42.8 °F 71% 29.89 in 10.0 mi South 10.4 mph - N/A   Clear
3:35 AM 50.0 °F - 42.8 °F 76% 29.88 in 10.0 mi South 10.4 mph - N/A   Clear
3:55 AM 50.0 °F - 42.8 °F 76% 29.89 in 10.0 mi South 10.4 mph - N/A   Clear
4:15 AM 50.0 °F - 42.8 °F 76% 29.89 in 10.0 mi South 8.1 mph - N/A   Clear
4:35 AM 50.0 °F - 42.8 °F 76% 29.89 in 10.0 mi South 8.1 mph - N/A   Clear
4:55 AM 48.2 °F - 42.8 °F 82% 29.88 in 10.0 mi South 9.2 mph - N/A   Clear
5:15 AM 48.2 °F - 42.8 °F 82% 29.88 in 10.0 mi South 8.1 mph - N/A   Clear
5:35 AM 48.2 °F - 42.8 °F 82% 29.88 in 10.0 mi South 9.2 mph - N/A   Clear
5:55 AM 46.4 °F 42.4 °F 42.8 °F 87% 29.88 in 10.0 mi South 8.1 mph - N/A   Clear
6:15 AM 46.4 °F 41.9 °F 42.8 °F 87% 29.88 in 10.0 mi South 9.2 mph - N/A   Clear
6:35 AM 46.4 °F 42.9 °F 41.0 °F 81% 29.87 in 10.0 mi South 6.9 mph - N/A   Clear
6:55 AM 46.4 °F 42.4 °F 42.8 °F 87% 29.87 in 10.0 mi South 8.1 mph - N/A   Clear
7:15 AM 48.2 °F - 42.8 °F 82% 29.87 in 10.0 mi South 9.2 mph - N/A   Clear
7:35 AM 50.0 °F - 42.8 °F 76% 29.86 in 10.0 mi South 10.4 mph - N/A   Clear
8:15 AM 53.6 °F - 42.8 °F 67% 29.85 in 10.0 mi South 10.4 mph - N/A   Clear
8:35 AM 55.4 °F - 44.6 °F 67% 29.84 in 10.0 mi South 10.4 mph - N/A   Clear
8:55 AM 57.2 °F - 44.6 °F 63% 29.84 in 10.0 mi South 11.5 mph 16.1 mph N/A   Clear
9:15 AM 59.0 °F - 44.6 °F 59% 29.84 in 10.0 mi SSW 13.8 mph - N/A   Clear
9:35 AM 60.8 °F - 44.6 °F 55% 29.84 in 10.0 mi South 13.8 mph 17.3 mph N/A   Clear
9:55 AM 60.8 °F - 44.6 °F 55% 29.82 in 10.0 mi South 13.8 mph - N/A   Clear
10:15 AM 62.6 °F - 44.6 °F 52% 29.82 in 10.0 mi South 12.7 mph - N/A   Clear
10:35 AM 62.6 °F - 46.4 °F 55% 29.81 in 10.0 mi South 12.7 mph 18.4 mph N/A   Clear
10:55 AM 62.6 °F - 44.6 °F 52% 29.80 in 10.0 mi South 16.1 mph 21.9 mph N/A   Clear
11:15 AM 64.4 °F - 44.6 °F 49% 29.80 in 10.0 mi South 15.0 mph - N/A   Clear
11:35 AM 64.4 °F - 44.6 °F 49% 29.80 in 10.0 mi South 18.4 mph - N/A   Clear
11:55 AM 68.0 °F - 44.6 °F 43% 29.79 in 10.0 mi SSE 17.3 mph 24.2 mph N/A   Clear
12:15 PM 68.0 °F - 44.6 °F 43% 29.79 in 10.0 mi South 16.1 mph 25.3 mph N/A   Clear
12:35 PM 68.0 °F - 44.6 °F 43% 29.78 in 10.0 mi South 16.1 mph 26.5 mph N/A   Clear
12:55 PM 68.0 °F - 44.6 °F 43% 29.77 in 10.0 mi South 18.4 mph 21.9 mph N/A   Clear
1:15 PM 69.8 °F - 42.8 °F 38% 29.77 in 10.0 mi South 13.8 mph 21.9 mph N/A   Clear
1:35 PM 69.8 °F - 42.8 °F 38% 29.76 in 10.0 mi SSW 17.3 mph 24.2 mph N/A   Clear
1:55 PM 71.6 °F - 42.8 °F 35% 29.76 in 10.0 mi SSW 19.6 mph 24.2 mph N/A   Clear
2:15 PM 71.6 °F - 44.6 °F 38% 29.75 in 10.0 mi South 16.1 mph 26.5 mph N/A   Clear
2:35 PM 71.6 °F - 44.6 °F 38% 29.75 in 10.0 mi South 15.0 mph - N/A   Clear
2:55 PM 73.4 °F - 44.6 °F 36% 29.74 in 10.0 mi South 19.6 mph 23.0 mph N/A   Clear
3:15 PM 73.4 °F - 44.6 °F 36% 29.74 in 10.0 mi South 19.6 mph 25.3 mph N/A   Clear
3:35 PM 73.4 °F - 44.6 °F 36% 29.73 in 10.0 mi SSW 15.0 mph 25.3 mph N/A   Clear
3:55 PM 73.4 °F - 44.6 °F 36% 29.72 in 10.0 mi SSW 16.1 mph 23.0 mph N/A   Clear
4:15 PM 73.4 °F - 44.6 °F 36% 29.71 in 10.0 mi South 13.8 mph 21.9 mph N/A   Clear
4:35 PM 73.4 °F - 44.6 °F 36% 29.71 in 10.0 mi South 16.1 mph 21.9 mph N/A   Clear
4:55 PM 73.4 °F - 44.6 °F 36% 29.70 in 10.0 mi South 15.0 mph - N/A   Clear
5:15 PM 73.4 °F - 44.6 °F 36% 29.70 in 10.0 mi South 16.1 mph 20.7 mph N/A   Clear
5:35 PM 73.4 °F - 44.6 °F 36% 29.69 in 10.0 mi South 12.7 mph - N/A   Clear
5:55 PM 73.4 °F - 46.4 °F 38% 29.69 in 10.0 mi SSE 13.8 mph 18.4 mph N/A   Clear
6:15 PM 71.6 °F - 46.4 °F 41% 29.68 in 10.0 mi SSE 12.7 mph - N/A   Clear
6:35 PM 71.6 °F - 46.4 °F 41% 29.68 in 10.0 mi SSE 10.4 mph - N/A   Scattered Clouds
6:55 PM 69.8 °F - 46.4 °F 43% 29.68 in 10.0 mi SSE 8.1 mph - N/A   Overcast
7:15 PM 68.0 °F - 50.0 °F 52% 29.70 in 10.0 mi WNW 16.1 mph 20.7 mph N/A Rain Rain
7:35 PM 62.6 °F - 51.8 °F 68% 29.70 in 10.0 mi ENE 4.6 mph - 0.02 in Rain Light Rain
7:55 PM 62.6 °F - 53.6 °F 72% 29.71 in 10.0 mi NNE 4.6 mph - 0.02 in Rain Light Rain
8:15 PM 60.8 °F - 53.6 °F 77% 29.72 in 10.0 mi NNE 5.8 mph - N/A Rain Light Rain
8:35 PM 60.8 °F - 53.6 °F 77% 29.71 in 10.0 mi ESE 6.9 mph - 0.01 in   Overcast
8:55 PM 60.8 °F - 53.6 °F 77% 29.71 in 10.0 mi SE 4.6 mph - 0.01 in   Overcast
9:15 PM 60.8 °F - 53.6 °F 77% 29.72 in 10.0 mi SSE 3.5 mph - N/A   Overcast
9:35 PM 59.0 °F - 53.6 °F 82% 29.73 in 10.0 mi North 9.2 mph - N/A   Mostly Cloudy
9:55 PM 57.2 °F - 55.4 °F 94% 29.74 in 10.0 mi NE 6.9 mph - N/A   Scattered Clouds
10:15 PM 57.2 °F - 55.4 °F 94% 29.75 in 10.0 mi NNE 3.5 mph - N/A Rain Light Rain
10:35 PM 57.2 °F - 55.4 °F 94% 29.80 in 5.0 mi NW 20.7 mph 28.8 mph 0.10 in Rain Heavy Rain
10:55 PM 55.4 °F - 53.6 °F 94% 29.75 in 4.0 mi Calm Calm - 0.17 in Rain Heavy Rain
11:15 PM 55.4 °F - 53.6 °F 94% 29.74 in 7.0 mi NNE 4.6 mph - 0.04 in Rain Light Rain
11:35 PM 53.6 °F - 53.6 °F 100% 29.74 in 10.0 mi Calm Calm - 0.04 in   Clear
11:55 PM 53.6 °F - 53.6 °F 100% 29.74 in 10.0 mi Calm Calm - 0.04 in   Clear